CZ-6A DEB

Satellite information

Favourite Embed

Satellite Type and Status

DEBRISIN ORBIT

Key statistics

Satellite CZ-6A DEB at a glance.

Uptime

912

Days in orbit

Revolutions

≈ 14.2

Per day

Orbit

SSO

Sun Synchronous Orbit

Inclination

98.8

Latest

Satellite identification and parameters

Extended collection of information and parameters for CZ-6A DEB.

Object identification

Identified? True

Debris? True

Object name: CZ-6A DEB

International designator: 2022-151AAY

Object number (NORAD): 55900

Object ID (CCSDS): 55900

Country: PEOPLES REPUBLIC OF CHINA (PRC)

Current information (Y/N): Y

RCS size: SMALL

Orbital parameters

Period: 101.41 minutes

Inclination: 98.7702 deg

SMA: 7203.56 km

Apoapsis: 852.662 km

Periapsis: 798.189 km

RAAN: 138.8685 deg

Eccentricy: 0.003781

Argument of periapsis: 56.4389 deg

Mean anomaly: 304.0389 deg

Mean motion: 14.19979179 rev/day

Mean motion (dot): 0.00002275 rev/day2

B* drag term: 0.0010827 1/REarth

Two-line elements (TLE)

Creation date: May 10, 2025, 5:27 p.m.

Reference frame: TEME

Reference center: EARTH

Epoch: May 10, 2025, 10:59 a.m. UTC

TLE line 0: 0 CZ-6A DEB

TLE line 1: 1 55900U 22151AAY 25130.45794125 .00002275 00000-0 10827-2 0 9994

TLE line 2: 2 55900 98.7702 138.8685 0037810 56.4389 304.0389 14.19979179122444

Live tracking on map

Real-time ground track for satellite CZ-6A DEB.

In-orbit conjunctions

A list of the most updated potential collisions computed for object CZ-6A DEB.

Target Orbit TCA Probability of collision Miss distance Type
CZ-6A DEB LEO 2025-04-26 10:59:01 0.0001015904 216.0 (m) DEBRIS
FENGYUN 1C DEB SSO 2025-03-16 22:19:58 0.000158479 125.0 (m) DEBRIS
DMSP 5D-2 F8 DEB SSO 2024-11-18 17:15:23 0.002541722 83.0 (m) DEBRIS
NOAA 16 DEB SSO 2024-07-02 10:42:19 0.0002205755 70.0 (m) DEBRIS

Associated space launch

Chinese satellite reported for atmospheric/ocean/environmental/spatial parameter research purposes, details TBD.

CZ-6A DEB was lifted into orbit during the mission ‘Long March 6A | Yunhai 3’, on board a Long March 6A space rocket.

The launch took place on Nov. 11, 2022, 10:52 p.m. from Launch Complex 9A.

For more information about the launch, click the button.

Launch to space Long March 6A | Yunhai 3
Long March 6A | Yunhai 3

Agency: N/A

Status: Launch Successful

Launch date: Nov. 11, 2022, 10:52 p.m. UTC

Rocket: Long March 6A

Launch pad: Launch Complex 9A

Location: Taiyuan Satellite Launch Center, People's Republic of China

...

Latest news about this satellite

There are no fresh news available about this satellite. Check back as we update our databases every day.


Newsletter sign-up

Weekly statistics, charts and insights to help you stay on top of the space industry.